RYR8YN EDNY-LEAL

Flight info

Callsign RYR8YN
Flight time 2h 4m
Altitude 35000
Route TRA1W TRA DCT LUTIX DCT BENOT DCT NEMOS DCT GEVEA DCT INCUS DCT BALSI DCT RETNO DCT TUPOX DCT MTG DCT DIVKO DCT VATIR N852 PIVUS Z237 OKITI M603 GERVU
Aircraft B38M/M-SDE1FGHILORVWXY/HB1

Departure

Time 2026-04-25 15:39
Airport Bodensee Airport Friedrichshafen (EDNY)

Arrival

Time 2026-04-25 17:44
Airport Alicante-Elche Miguel Hernández Airport (LEAL)
Time Latitude Longitude Altitude Speed Heading
2026-04-25 15:14 47.67338 9.52306 1378 ft 0 kts 174°
2026-04-25 15:35 47.67337 9.52306 1378 ft 0 kts 177°
2026-04-25 15:35 47.67335 9.52301 1378 ft 1 kts 232°
2026-04-25 15:35 47.67338 9.52294 1378 ft 1 kts 311°
2026-04-25 15:36 47.67406 9.52329 1377 ft 13 kts 53°
2026-04-25 15:36 47.67464 9.52479 1378 ft 20 kts 58°
2026-04-25 15:36 47.67542 9.52585 1376 ft 13 kts 347°
2026-04-25 15:37 47.67626 9.52517 1374 ft 14 kts 324°
2026-04-25 15:37 47.67620 9.52408 1378 ft 8 kts 240°
2026-04-25 15:37 47.67619 9.52405 1378 ft 0 kts 239°
2026-04-25 15:38 47.67618 9.52403 1378 ft 1 kts 239°
2026-04-25 15:38 47.67611 9.52384 1376 ft 5 kts 239°
2026-04-25 15:39 47.67483 9.52058 1375 ft 74 kts 240°
2026-04-25 15:39 47.67114 9.51105 1378 ft 136 kts 240°
2026-04-25 15:39 47.66566 9.49681 1507 ft 173 kts 240°
2026-04-25 15:39 47.65969 9.48115 2340 ft 161 kts 241°
2026-04-25 15:40 47.65433 9.46750 3311 ft 156 kts 241°
2026-04-25 15:40 47.65060 9.45791 3589 ft 168 kts 243°
2026-04-25 15:40 47.64217 9.43596 4172 ft 201 kts 242°
2026-04-25 15:40 47.63503 9.41736 4780 ft 219 kts 243°
2026-04-25 15:41 47.63144 9.39536 5708 ft 216 kts 275°
2026-04-25 15:41 47.63609 9.37435 6591 ft 220 kts 304°
2026-04-25 15:41 47.64736 9.35892 7414 ft 224 kts 328°
2026-04-25 15:41 47.66086 9.34694 8250 ft 228 kts 327°
2026-04-25 15:42 47.67458 9.33480 9076 ft 231 kts 327°
2026-04-25 15:42 47.68851 9.32261 9917 ft 234 kts 327°
2026-04-25 15:42 47.70302 9.31088 10531 ft 244 kts 334°
2026-04-25 15:42 47.71932 9.30193 10951 ft 260 kts 338°
2026-04-25 15:43 47.73667 9.29279 11534 ft 266 kts 338°
2026-04-25 15:43 47.75411 9.28352 12253 ft 267 kts 338°
2026-04-25 15:43 47.77139 9.27308 12878 ft 269 kts 327°
2026-04-25 15:43 47.78499 9.25427 13508 ft 269 kts 305°
2026-04-25 15:44 47.79508 9.23074 14039 ft 272 kts 301°
2026-04-25 15:44 47.80490 9.20645 14571 ft 274 kts 300°
2026-04-25 15:44 47.81453 9.18183 15068 ft 276 kts 300°
2026-04-25 15:44 47.82389 9.15671 15649 ft 278 kts 294°
2026-04-25 15:45 47.82839 9.12865 16217 ft 281 kts 273°
2026-04-25 15:45 47.82630 9.09955 16751 ft 286 kts 259°
2026-04-25 15:45 47.82166 9.07096 17277 ft 290 kts 257°
2026-04-25 15:45 47.81817 9.05138 17637 ft 291 kts 257°
2026-04-25 15:46 47.81078 9.01274 18323 ft 295 kts 256°
2026-04-25 15:46 47.80490 8.98332 18758 ft 297 kts 256°
2026-04-25 15:46 47.79890 8.95386 19219 ft 299 kts 256°
2026-04-25 15:46 47.79277 8.92419 19654 ft 301 kts 256°
2026-04-25 15:47 47.78655 8.89436 20075 ft 302 kts 256°
2026-04-25 15:47 47.78028 8.86446 20513 ft 304 kts 257°
2026-04-25 15:47 47.77399 8.83446 20915 ft 306 kts 257°
2026-04-25 15:47 47.76761 8.80416 21331 ft 307 kts 258°
2026-04-25 15:48 47.76120 8.77374 21738 ft 309 kts 258°
2026-04-25 15:48 47.75475 8.74319 22094 ft 313 kts 258°
2026-04-25 15:48 47.74820 8.71230 22523 ft 314 kts 258°
2026-04-25 15:48 47.74151 8.68062 22585 ft 329 kts 258°
2026-04-25 15:49 47.73449 8.64762 22618 ft 342 kts 258°
2026-04-25 15:49 47.72719 8.61328 22643 ft 355 kts 258°
2026-04-25 15:49 47.71962 8.57773 22669 ft 367 kts 257°
2026-04-25 15:49 47.71180 8.54109 22646 ft 379 kts 257°
2026-04-25 15:50 47.70377 8.50349 22922 ft 382 kts 257°
2026-04-25 15:50 47.69575 8.46599 23245 ft 384 kts 258°
2026-04-25 15:50 47.68499 8.42934 23550 ft 394 kts 242°
2026-04-25 15:50 47.66898 8.39599 23852 ft 397 kts 241°
2026-04-25 15:51 47.65305 8.36215 23982 ft 402 kts 240°
2026-04-25 15:51 47.64235 8.33973 24193 ft 402 kts 240°
2026-04-25 15:51 47.62056 8.29449 24517 ft 405 kts 240°
2026-04-25 15:51 47.60411 8.26053 24764 ft 406 kts 240°
2026-04-25 15:52 47.58760 8.22652 25002 ft 407 kts 240°
2026-04-25 15:52 47.57100 8.19239 25231 ft 409 kts 240°
2026-04-25 15:52 47.55431 8.15812 25469 ft 410 kts 240°
2026-04-25 15:52 47.53758 8.12381 25696 ft 412 kts 239°
2026-04-25 15:53 47.52074 8.08932 25929 ft 413 kts 239°
2026-04-25 15:53 47.50406 8.05519 26123 ft 415 kts 239°
2026-04-25 15:53 47.48712 8.02058 26356 ft 417 kts 239°
2026-04-25 15:53 47.47009 7.98582 26599 ft 418 kts 239°
2026-04-25 15:54 47.45301 7.95100 26836 ft 419 kts 239°
2026-04-25 15:54 47.43590 7.91619 27046 ft 420 kts 239°
2026-04-25 15:54 47.41866 7.88113 27255 ft 422 kts 239°
2026-04-25 15:54 47.40134 7.84598 27479 ft 423 kts 239°
2026-04-25 15:55 47.38405 7.81091 27672 ft 424 kts 239°
2026-04-25 15:55 47.36668 7.77574 27850 ft 425 kts 239°
2026-04-25 15:55 47.34920 7.74038 28052 ft 426 kts 239°
2026-04-25 15:55 47.33174 7.70510 28229 ft 427 kts 238°
2026-04-25 15:56 47.31420 7.66973 28361 ft 427 kts 238°
2026-04-25 15:56 47.29664 7.63434 28531 ft 428 kts 238°
2026-04-25 15:56 47.27905 7.59894 28696 ft 429 kts 238°
2026-04-25 15:56 47.26138 7.56343 28835 ft 430 kts 238°
2026-04-25 15:57 47.22587 7.49221 29044 ft 431 kts 238°
2026-04-25 15:57 47.20816 7.45676 29212 ft 431 kts 238°
2026-04-25 15:57 47.19033 7.42108 29321 ft 432 kts 238°
2026-04-25 15:58 47.17252 7.38551 29488 ft 432 kts 238°
2026-04-25 15:58 47.15395 7.35075 29597 ft 434 kts 236°
2026-04-25 15:58 47.13514 7.31607 29723 ft 434 kts 236°
2026-04-25 15:58 47.11634 7.28125 29848 ft 434 kts 236°
2026-04-25 15:59 47.07879 7.21170 30061 ft 436 kts 236°
2026-04-25 15:59 47.05990 7.17680 30194 ft 436 kts 236°
2026-04-25 15:59 47.04111 7.14237 30303 ft 437 kts 236°
2026-04-25 16:00 47.01567 7.09577 30406 ft 437 kts 236°
2026-04-25 16:00 46.98403 7.03792 30571 ft 438 kts 235°
2026-04-25 16:00 46.96491 7.00302 30662 ft 439 kts 235°
2026-04-25 16:01 46.94583 6.96823 30797 ft 438 kts 235°
2026-04-25 16:01 46.92675 6.93348 30932 ft 438 kts 235°
2026-04-25 16:01 46.90650 6.90007 31044 ft 442 kts 224°
2026-04-25 16:01 46.88251 6.87177 31208 ft 442 kts 223°
2026-04-25 16:02 46.83482 6.81454 31434 ft 444 kts 223°
2026-04-25 16:02 46.81115 6.78632 31578 ft 445 kts 223°
2026-04-25 16:02 46.78712 6.75774 31732 ft 446 kts 223°
2026-04-25 16:03 46.76309 6.72920 31882 ft 446 kts 222°
2026-04-25 16:03 46.73904 6.70066 32098 ft 446 kts 223°
2026-04-25 16:03 46.71496 6.67212 32257 ft 447 kts 222°
2026-04-25 16:03 46.69081 6.64354 32435 ft 447 kts 222°
2026-04-25 16:04 46.66673 6.61507 32702 ft 446 kts 222°
2026-04-25 16:04 46.64264 6.58663 32994 ft 445 kts 222°
2026-04-25 16:04 46.61868 6.55837 33332 ft 443 kts 222°
2026-04-25 16:04 46.59486 6.53031 33644 ft 441 kts 222°
2026-04-25 16:05 46.57091 6.50213 33976 ft 440 kts 222°
2026-04-25 16:05 46.54720 6.47427 34299 ft 438 kts 222°
2026-04-25 16:05 46.49987 6.41874 34805 ft 437 kts 222°
2026-04-25 16:06 46.47626 6.39109 35021 ft 437 kts 222°
2026-04-25 16:06 46.42886 6.33566 35060 ft 435 kts 222°
2026-04-25 16:07 46.38171 6.28066 35063 ft 435 kts 221°
2026-04-25 16:07 46.33450 6.22572 35075 ft 435 kts 221°
2026-04-25 16:08 46.28722 6.17079 35075 ft 435 kts 221°
2026-04-25 16:08 46.26259 6.14536 35058 ft 438 kts 210°
2026-04-25 16:08 46.23396 6.13013 35073 ft 442 kts 194°
2026-04-25 16:09 46.17294 6.11475 35063 ft 446 kts 192°
2026-04-25 16:09 46.11164 6.10061 35075 ft 446 kts 191°
2026-04-25 16:10 46.06061 6.08923 35073 ft 446 kts 191°
2026-04-25 16:10 45.98885 6.07335 35070 ft 446 kts 191°
2026-04-25 16:11 45.92789 6.05989 35070 ft 446 kts 191°
2026-04-25 16:11 45.86661 6.04638 35078 ft 446 kts 191°
2026-04-25 16:12 45.80514 6.03278 35067 ft 446 kts 191°
2026-04-25 16:12 45.74383 6.01924 35067 ft 445 kts 191°
2026-04-25 16:13 45.69298 6.00805 35044 ft 445 kts 191°
2026-04-25 16:13 45.63176 5.99459 35047 ft 445 kts 191°
2026-04-25 16:14 45.57055 5.98116 35052 ft 445 kts 191°
2026-04-25 16:14 45.50947 5.96779 35047 ft 444 kts 191°
2026-04-25 16:15 45.44890 5.95083 35051 ft 442 kts 195°
2026-04-25 16:15 45.38883 5.93173 35019 ft 442 kts 195°
2026-04-25 16:16 45.32904 5.91311 35061 ft 443 kts 194°
2026-04-25 16:16 45.26848 5.89434 35052 ft 442 kts 194°
2026-04-25 16:17 45.20832 5.87573 35071 ft 443 kts 194°
2026-04-25 16:17 45.14858 5.85729 35066 ft 442 kts 194°
2026-04-25 16:18 45.08836 5.83874 35061 ft 442 kts 194°
2026-04-25 16:18 45.02822 5.82025 35057 ft 442 kts 194°
2026-04-25 16:19 44.96806 5.80181 35056 ft 441 kts 194°
2026-04-25 16:19 44.90803 5.78343 35061 ft 441 kts 194°
2026-04-25 16:20 44.81806 5.75598 35049 ft 440 kts 194°
2026-04-25 16:21 44.72857 5.72875 35053 ft 440 kts 194°
2026-04-25 16:21 44.66827 5.71045 35047 ft 440 kts 194°
2026-04-25 16:22 44.60847 5.69235 35040 ft 439 kts 194°
2026-04-25 16:22 44.54909 5.67440 35029 ft 439 kts 194°
2026-04-25 16:23 44.48925 5.65636 35042 ft 440 kts 195°
2026-04-25 16:23 44.42951 5.63838 35033 ft 439 kts 195°
2026-04-25 16:24 44.37017 5.61836 35022 ft 436 kts 204°
2026-04-25 16:24 44.31386 5.58715 35029 ft 436 kts 204°
2026-04-25 16:25 44.25736 5.55627 35029 ft 436 kts 204°
2026-04-25 16:25 44.20084 5.52537 35023 ft 437 kts 203°
2026-04-25 16:26 44.14415 5.49445 35023 ft 436 kts 203°
2026-04-25 16:26 44.08762 5.46370 35015 ft 437 kts 204°
2026-04-25 16:27 44.03110 5.43301 35018 ft 437 kts 204°
2026-04-25 16:27 43.97441 5.40228 35019 ft 437 kts 204°
2026-04-25 16:28 43.91770 5.37156 35021 ft 437 kts 203°
2026-04-25 16:28 43.86105 5.34094 35030 ft 438 kts 204°
2026-04-25 16:29 43.80414 5.31026 35033 ft 439 kts 203°
2026-04-25 16:29 43.74758 5.27983 35039 ft 439 kts 203°
2026-04-25 16:30 43.69074 5.24929 35036 ft 439 kts 203°
2026-04-25 16:30 43.63366 5.21870 35047 ft 439 kts 203°
2026-04-25 16:31 43.57664 5.18820 35045 ft 439 kts 203°
2026-04-25 16:31 43.51960 5.15774 35047 ft 439 kts 203°
2026-04-25 16:32 43.46248 5.12732 35053 ft 440 kts 203°
2026-04-25 16:32 43.40532 5.09692 35047 ft 440 kts 203°
2026-04-25 16:32 43.37799 5.07856 35031 ft 436 kts 216°
2026-04-25 16:33 43.35360 5.05514 35043 ft 437 kts 216°
2026-04-25 16:33 43.30313 5.00827 35056 ft 437 kts 216°
2026-04-25 16:34 43.25285 4.96105 35051 ft 438 kts 216°
2026-04-25 16:34 43.20265 4.91391 35051 ft 437 kts 216°
2026-04-25 16:35 43.15250 4.86692 35056 ft 437 kts 216°
2026-04-25 16:35 43.10227 4.81995 35060 ft 437 kts 216°
2026-04-25 16:36 43.05156 4.77389 35052 ft 439 kts 209°
2026-04-25 16:36 42.99777 4.73440 35053 ft 439 kts 210°
2026-04-25 16:37 42.94433 4.69396 35075 ft 439 kts 211°
2026-04-25 16:37 42.89104 4.65351 35069 ft 439 kts 211°
2026-04-25 16:38 42.83757 4.61298 35067 ft 439 kts 211°
2026-04-25 16:38 42.78407 4.57254 35065 ft 439 kts 210°
2026-04-25 16:39 42.73114 4.53259 35069 ft 437 kts 211°
2026-04-25 16:39 42.67782 4.49243 35084 ft 437 kts 211°
2026-04-25 16:40 42.62465 4.45246 35088 ft 438 kts 211°
2026-04-25 16:40 42.57132 4.41244 35078 ft 437 kts 210°
2026-04-25 16:41 42.51805 4.37257 35073 ft 438 kts 211°
2026-04-25 16:41 42.43786 4.31267 35087 ft 439 kts 211°
2026-04-25 16:42 42.38440 4.27285 35090 ft 438 kts 210°
2026-04-25 16:42 42.33096 4.23310 35082 ft 438 kts 211°
2026-04-25 16:43 42.27743 4.19337 35090 ft 440 kts 211°
2026-04-25 16:43 42.22393 4.15374 35090 ft 438 kts 210°
2026-04-25 16:44 42.17036 4.11416 35086 ft 438 kts 210°
2026-04-25 16:44 42.11683 4.07482 35094 ft 438 kts 210°
2026-04-25 16:45 42.06325 4.03551 35100 ft 439 kts 210°
2026-04-25 16:45 42.00989 3.99643 35100 ft 439 kts 210°
2026-04-25 16:46 41.95617 3.95717 35102 ft 439 kts 210°
2026-04-25 16:46 41.92012 3.93147 35100 ft 439 kts 207°
2026-04-25 16:47 41.84667 3.88228 35097 ft 441 kts 208°
2026-04-25 16:47 41.79227 3.84568 35113 ft 441 kts 208°
2026-04-25 16:48 41.73742 3.80884 35106 ft 441 kts 208°
2026-04-25 16:48 41.68253 3.77205 35099 ft 441 kts 208°
2026-04-25 16:49 41.62769 3.73537 35110 ft 442 kts 208°
2026-04-25 16:49 41.57265 3.69861 35111 ft 442 kts 207°
2026-04-25 16:50 41.51766 3.66196 35116 ft 441 kts 208°
2026-04-25 16:50 41.46264 3.62537 35116 ft 441 kts 207°
2026-04-25 16:51 41.40770 3.58889 35112 ft 441 kts 207°
2026-04-25 16:51 41.37128 3.56475 35112 ft 441 kts 207°
2026-04-25 16:52 41.29803 3.51628 35120 ft 441 kts 207°
2026-04-25 16:52 41.24312 3.48002 35123 ft 441 kts 207°
2026-04-25 16:53 41.15920 3.42947 35124 ft 442 kts 201°
2026-04-25 16:54 41.10176 3.40015 35118 ft 442 kts 202°
2026-04-25 16:54 41.04450 3.37043 35116 ft 442 kts 202°
2026-04-25 16:55 40.98730 3.34073 35117 ft 442 kts 202°
2026-04-25 16:55 40.93009 3.31109 35116 ft 441 kts 202°
2026-04-25 16:56 40.87337 3.28174 35114 ft 441 kts 202°
2026-04-25 16:56 40.81576 3.25200 35116 ft 440 kts 202°
2026-04-25 16:57 40.75868 3.22258 35116 ft 440 kts 201°
2026-04-25 16:57 40.70192 3.19337 35121 ft 440 kts 202°
2026-04-25 16:58 40.64483 3.16406 35118 ft 441 kts 202°
2026-04-25 16:58 40.58904 3.13108 35119 ft 439 kts 209°
2026-04-25 16:59 40.53523 3.09262 35117 ft 440 kts 209°
2026-04-25 16:59 40.48153 3.05408 35115 ft 440 kts 209°
2026-04-25 17:00 40.43691 3.02209 35117 ft 439 kts 209°
2026-04-25 17:00 40.38336 2.98379 35116 ft 438 kts 208°
2026-04-25 17:01 40.32999 2.94567 35115 ft 437 kts 208°
2026-04-25 17:01 40.27647 2.90751 35119 ft 438 kts 208°
2026-04-25 17:02 40.22298 2.86944 35110 ft 438 kts 208°
2026-04-25 17:02 40.16947 2.83144 35112 ft 437 kts 208°
2026-04-25 17:03 40.11594 2.79349 35113 ft 438 kts 208°
2026-04-25 17:03 40.06241 2.75558 35106 ft 438 kts 208°
2026-04-25 17:04 40.00883 2.71773 35102 ft 437 kts 208°
2026-04-25 17:04 39.95569 2.68026 35110 ft 437 kts 208°
2026-04-25 17:05 39.90195 2.64243 35097 ft 437 kts 208°
2026-04-25 17:05 39.82175 2.58610 35103 ft 437 kts 208°
2026-04-25 17:06 39.76813 2.54852 35106 ft 437 kts 208°
2026-04-25 17:06 39.71506 2.51138 35098 ft 435 kts 208°
2026-04-25 17:07 39.66196 2.47428 35100 ft 435 kts 208°
2026-04-25 17:07 39.60852 2.43702 35107 ft 435 kts 208°
2026-04-25 17:08 39.55708 2.39622 35075 ft 434 kts 224°
2026-04-25 17:08 39.53810 2.36600 35107 ft 434 kts 238°
2026-04-25 17:08 39.52219 2.33258 35088 ft 437 kts 238°
2026-04-25 17:09 39.49088 2.26500 35101 ft 438 kts 239°
2026-04-25 17:09 39.46014 2.19718 35106 ft 439 kts 239°
2026-04-25 17:10 39.42934 2.12900 35103 ft 439 kts 239°
2026-04-25 17:10 39.39852 2.06089 35103 ft 439 kts 239°
2026-04-25 17:11 39.36767 1.99288 35097 ft 438 kts 239°
2026-04-25 17:11 39.33679 1.92493 35096 ft 438 kts 239°
2026-04-25 17:12 39.30592 1.85714 35097 ft 437 kts 239°
2026-04-25 17:12 39.27506 1.78952 35085 ft 437 kts 239°
2026-04-25 17:13 39.24940 1.73341 35091 ft 437 kts 239°
2026-04-25 17:13 39.21331 1.65467 35090 ft 437 kts 239°
2026-04-25 17:14 39.18250 1.58761 35088 ft 436 kts 238°
2026-04-25 17:14 39.15154 1.52035 35081 ft 436 kts 238°
2026-04-25 17:15 39.12058 1.45308 35088 ft 437 kts 240°
2026-04-25 17:15 39.09749 1.38172 34935 ft 422 kts 248°
2026-04-25 17:16 39.08679 1.34669 34577 ft 417 kts 248°
2026-04-25 17:16 39.07626 1.31219 34097 ft 415 kts 248°
2026-04-25 17:16 39.06570 1.27757 33516 ft 414 kts 248°
2026-04-25 17:16 39.05520 1.24324 33005 ft 412 kts 248°
2026-04-25 17:17 39.04470 1.20901 32547 ft 409 kts 246°
2026-04-25 17:17 39.03425 1.17514 32093 ft 405 kts 246°
2026-04-25 17:17 39.02390 1.14162 31643 ft 402 kts 246°
2026-04-25 17:17 39.01370 1.10822 31226 ft 399 kts 248°
2026-04-25 17:18 39.00361 1.07506 30785 ft 397 kts 247°
2026-04-25 17:18 38.99363 1.04254 30335 ft 396 kts 247°
2026-04-25 17:18 38.98351 1.00963 29843 ft 395 kts 247°
2026-04-25 17:18 38.97345 0.97700 29377 ft 392 kts 247°
2026-04-25 17:19 38.96343 0.94453 28940 ft 389 kts 247°
2026-04-25 17:19 38.95346 0.91224 28457 ft 388 kts 247°
2026-04-25 17:19 38.94355 0.88020 28065 ft 384 kts 247°
2026-04-25 17:19 38.93372 0.84843 27666 ft 381 kts 247°
2026-04-25 17:20 38.92396 0.81695 27263 ft 379 kts 247°
2026-04-25 17:20 38.91423 0.78559 26872 ft 377 kts 247°
2026-04-25 17:20 38.90457 0.75449 26479 ft 375 kts 247°
2026-04-25 17:20 38.89493 0.72348 26091 ft 373 kts 247°
2026-04-25 17:21 38.88523 0.69231 25712 ft 371 kts 247°
2026-04-25 17:21 38.87578 0.66201 25299 ft 370 kts 246°
2026-04-25 17:21 38.86619 0.63129 24877 ft 370 kts 246°
2026-04-25 17:21 38.85666 0.60078 24523 ft 368 kts 246°
2026-04-25 17:22 38.84713 0.57035 24164 ft 367 kts 246°
2026-04-25 17:22 38.84072 0.54985 23895 ft 366 kts 246°
2026-04-25 17:22 38.82819 0.50987 23358 ft 364 kts 246°
2026-04-25 17:22 38.81906 0.47911 22925 ft 363 kts 253°
2026-04-25 17:23 38.81315 0.44826 22582 ft 360 kts 255°
2026-04-25 17:23 38.80690 0.41704 22322 ft 354 kts 254°
2026-04-25 17:23 38.80070 0.38682 22022 ft 355 kts 253°
2026-04-25 17:23 38.79431 0.35625 21696 ft 355 kts 254°
2026-04-25 17:24 38.78788 0.32576 21370 ft 354 kts 254°
2026-04-25 17:24 38.78168 0.29649 21062 ft 353 kts 254°
2026-04-25 17:24 38.77520 0.26595 20738 ft 352 kts 253°
2026-04-25 17:24 38.76878 0.23582 20418 ft 351 kts 253°
2026-04-25 17:25 38.76236 0.20566 20097 ft 350 kts 253°
2026-04-25 17:25 38.75595 0.17567 19778 ft 349 kts 253°
2026-04-25 17:25 38.74958 0.14585 19464 ft 347 kts 253°
2026-04-25 17:25 38.74320 0.11605 19138 ft 344 kts 253°
2026-04-25 17:26 38.73689 0.08659 18821 ft 342 kts 253°
2026-04-25 17:26 38.73059 0.05725 18504 ft 341 kts 253°
2026-04-25 17:26 38.72433 0.02811 18175 ft 340 kts 253°
2026-04-25 17:26 38.71807 -0.00101 17838 ft 339 kts 253°
2026-04-25 17:27 38.71179 -0.03013 17516 ft 340 kts 254°
2026-04-25 17:27 38.70551 -0.05924 17196 ft 338 kts 254°
2026-04-25 17:27 38.69926 -0.08818 16900 ft 336 kts 253°
2026-04-25 17:27 38.69715 -0.09789 16779 ft 336 kts 254°
2026-04-25 17:28 38.68677 -0.14584 16281 ft 336 kts 254°
2026-04-25 17:28 38.68054 -0.17455 15965 ft 333 kts 254°
2026-04-25 17:28 38.67438 -0.20297 15669 ft 331 kts 254°
2026-04-25 17:28 38.66822 -0.23126 15364 ft 329 kts 254°
2026-04-25 17:29 38.66210 -0.25938 15066 ft 328 kts 254°
2026-04-25 17:29 38.65598 -0.28745 14766 ft 327 kts 254°
2026-04-25 17:29 38.64990 -0.31534 14459 ft 327 kts 253°
2026-04-25 17:29 38.64376 -0.34344 14171 ft 327 kts 254°
2026-04-25 17:30 38.63970 -0.36200 13967 ft 326 kts 254°
2026-04-25 17:30 38.63154 -0.39925 13530 ft 323 kts 254°
2026-04-25 17:30 38.62550 -0.42689 13203 ft 322 kts 254°
2026-04-25 17:30 38.61949 -0.45440 12876 ft 320 kts 254°
2026-04-25 17:31 38.61361 -0.48134 12597 ft 317 kts 254°
2026-04-25 17:31 38.60766 -0.50851 12344 ft 318 kts 253°
2026-04-25 17:31 38.60171 -0.53572 12038 ft 318 kts 254°
2026-04-25 17:31 38.59574 -0.56289 11752 ft 317 kts 253°
2026-04-25 17:32 38.58980 -0.58997 11467 ft 315 kts 253°
2026-04-25 17:32 38.58387 -0.61692 11184 ft 314 kts 253°
2026-04-25 17:32 38.57795 -0.64383 10888 ft 313 kts 253°
2026-04-25 17:32 38.57208 -0.67048 10602 ft 311 kts 253°
2026-04-25 17:33 38.56624 -0.69693 10319 ft 308 kts 253°
2026-04-25 17:33 38.56044 -0.72319 10035 ft 306 kts 253°
2026-04-25 17:33 38.55466 -0.74932 9726 ft 304 kts 253°
2026-04-25 17:33 38.54895 -0.77518 9417 ft 301 kts 252°
2026-04-25 17:34 38.54328 -0.80078 9151 ft 297 kts 252°
2026-04-25 17:34 38.53714 -0.82583 8862 ft 293 kts 243°
2026-04-25 17:34 38.52563 -0.84676 8573 ft 286 kts 223°
2026-04-25 17:34 38.51150 -0.86429 8337 ft 281 kts 220°
2026-04-25 17:35 38.49717 -0.88105 8087 ft 277 kts 219°
2026-04-25 17:35 38.48267 -0.89701 7839 ft 273 kts 216°
2026-04-25 17:35 38.46808 -0.91165 7608 ft 268 kts 213°
2026-04-25 17:35 38.45292 -0.92528 7368 ft 265 kts 210°
2026-04-25 17:36 38.43738 -0.93768 7121 ft 261 kts 207°
2026-04-25 17:36 38.42157 -0.94880 6887 ft 258 kts 204°
2026-04-25 17:36 38.40531 -0.95881 6633 ft 262 kts 201°
2026-04-25 17:36 38.38832 -0.96778 6372 ft 265 kts 197°
2026-04-25 17:37 38.37040 -0.97219 6058 ft 262 kts 175°
2026-04-25 17:37 38.35354 -0.96551 5724 ft 251 kts 142°
2026-04-25 17:37 38.34066 -0.95083 5583 ft 249 kts 126°
2026-04-25 17:37 38.33330 -0.93116 5335 ft 248 kts 101°
2026-04-25 17:38 38.33062 -0.90945 5129 ft 249 kts 98°
2026-04-25 17:38 38.32973 -0.90205 5047 ft 248 kts 98°
2026-04-25 17:38 38.32508 -0.86679 4597 ft 236 kts 99°
2026-04-25 17:38 38.32233 -0.84681 4330 ft 221 kts 98°
2026-04-25 17:39 38.31973 -0.82806 4056 ft 209 kts 98°
2026-04-25 17:39 38.31727 -0.81026 3795 ft 197 kts 98°
2026-04-25 17:39 38.31496 -0.79370 3548 ft 184 kts 98°
2026-04-25 17:39 38.31278 -0.77802 3308 ft 177 kts 98°
2026-04-25 17:40 38.31063 -0.76256 3075 ft 177 kts 98°
2026-04-25 17:40 38.30850 -0.74724 2848 ft 176 kts 98°
2026-04-25 17:40 38.30638 -0.73205 2614 ft 173 kts 98°
2026-04-25 17:40 38.30428 -0.71696 2387 ft 173 kts 98°
2026-04-25 17:41 38.30218 -0.70190 2156 ft 172 kts 98°
2026-04-25 17:41 38.30010 -0.68692 1915 ft 172 kts 99°
2026-04-25 17:41 38.29803 -0.67197 1700 ft 170 kts 99°
2026-04-25 17:41 38.29598 -0.65727 1470 ft 167 kts 99°
2026-04-25 17:42 38.29401 -0.64309 1254 ft 157 kts 99°
2026-04-25 17:42 38.29217 -0.62993 1088 ft 147 kts 100°
2026-04-25 17:42 38.29047 -0.61728 847 ft 144 kts 101°
2026-04-25 17:42 38.28867 -0.60482 664 ft 142 kts 101°
2026-04-25 17:43 38.28699 -0.59240 484 ft 142 kts 100°
2026-04-25 17:43 38.28528 -0.58009 290 ft 141 kts 101°
2026-04-25 17:43 38.28359 -0.56839 132 ft 131 kts 103°
2026-04-25 17:43 38.28272 -0.56201 115 ft 86 kts 101°
2026-04-25 17:44 38.28167 -0.55454 96 ft 62 kts 99°
2026-04-25 17:44 38.28122 -0.55127 85 ft 45 kts 94°
2026-04-25 17:44 38.28171 -0.54800 70 ft 27 kts 71°
2026-04-25 17:44 38.28246 -0.54742 72 ft 11 kts 294°
2026-04-25 17:45 38.28258 -0.54828 71 ft 9 kts 280°
2026-04-25 17:45 38.28265 -0.54880 77 ft 9 kts 279°
2026-04-25 17:45 38.28278 -0.54977 81 ft 8 kts 280°
2026-04-25 17:45 38.28288 -0.55046 84 ft 9 kts 279°
2026-04-25 17:46 38.28299 -0.55131 90 ft 10 kts 280°
2026-04-25 17:46 38.28337 -0.55213 90 ft 13 kts 347°
2026-04-25 17:46 38.28405 -0.55131 90 ft 18 kts 57°
2026-04-25 17:46 38.28433 -0.54991 91 ft 11 kts 40°
2026-04-25 17:47 38.28474 -0.54979 90 ft 7 kts 10°
2026-04-25 17:47 38.28533 -0.54966 90 ft 11 kts 10°
2026-04-25 17:47 38.28625 -0.54944 92 ft 16 kts 10°
2026-04-25 17:47 38.28679 -0.54954 91 ft 4 kts 290°
2026-04-25 17:48 38.28688 -0.55012 91 ft 0 kts 280°